This is the latest recevied weather packets stored in our database for station/object KG4LKY-5. If no packets are shown the sender has not sent any weather packets the latest 10 day(s).
| Time | Temp. | Humidity | Pressure | Rain* | Wind** | Luminosity | Snow |
|---|---|---|---|---|---|---|---|
| 1777570784 | 16.11° C | 38% | 1016.2 hPa | 0 mm | - | - | - |
| 1777570750 | 16.11° C | 38% | 1016.2 hPa | 0 mm | - | - | - |
| 1777570450 | 16.11° C | 38% | 1016.4 hPa | 0 mm | - | - | - |
| 1777570150 | 13.33° C | 38% | 1016.4 hPa | 0 mm | - | - | - |
| 1777569850 | 14.44° C | 38% | 1016.5 hPa | 0 mm | - | - | - |
| 1777569249 | 14.44° C | 36% | 1016.6 hPa | 0 mm | - | - | - |
| 1777568949 | 14.44° C | 36% | 1016.7 hPa | 0 mm | - | - | - |
| 1777568649 | 13.89° C | 37% | 1016.8 hPa | 0 mm | - | - | - |
| 1777568348 | 13.33° C | 35% | 1016.9 hPa | 0 mm | - | - | - |
| 1777568048 | 14.44° C | 37% | 1017 hPa | 0 mm | - | - | - |
| 1777567747 | 14.44° C | 36% | 1016.9 hPa | 0 mm | - | - | - |
| 1777567448 | 15° C | 42% | 1016.9 hPa | 0 mm | - | - | - |
| 1777567147 | 13.89° C | 42% | 1017 hPa | 0 mm | - | - | - |
| 1777566847 | 13.33° C | 48% | 1017 hPa | 0 mm | - | - | - |
| 1777566547 | 14.44° C | 44% | 1017 hPa | 0 mm | - | - | - |
| 1777566246 | 13.89° C | 50% | 1016.9 hPa | 0 mm | - | - | - |
| 1777565946 | 12.22° C | 51% | 1016.9 hPa | 0 mm | - | - | - |
| 1777565645 | 13.33° C | 51% | 1016.9 hPa | 0 mm | - | - | - |
| 1777565345 | 13.89° C | 47% | 1017 hPa | 0 mm | - | - | - |
| 1777565045 | 13.33° C | 46% | 1016.9 hPa | 0 mm | - | - | - |
| 1777564142 | 13.89° C | 48% | 1017.1 hPa | 0 mm | - | - | - |
| 1777563843 | 12.22° C | 48% | 1017.1 hPa | 0 mm | - | - | - |
| 1777563242 | 11.67° C | 52% | 1017 hPa | 0 mm | - | - | - |
| 1777562641 | 11.67° C | 52% | 1016.9 hPa | 0 mm | - | - | - |
| 1777562342 | 12.78° C | 61% | 1016.9 hPa | 0 mm | - | - | - |
* Rain since midnight (hover to see other rain measurements)
** Current wind speed in m/s (hover to see current wind gust speed)